White Plains, CT

2:27 AM EST on November 20, 2019 (GMT -0500)
Westchester County

Weather History for KHPN - October, 2019

Change the Weather History Date:

Tuesday, October 22, 2019

  Actual Average Record
Temperature  
Mean Temperature 54 °F -  
Max Temperature 59 °F 57 °F 82 °F (1979)
Min Temperature 51 °F 41 °F 31 °F (1983)
Degree Days  
Heating Degree Days 11    
Growing Degree Days 4 (Base 50)    
Moisture  
Dew Point 49 °F    
Average Humidity 84    
Maximum Humidity 100    
Minimum Humidity 59    
Precipitation  
Precipitation 0.41 in - - ()
Sea Level Pressure  
Sea Level Pressure 30.00 in    
Wind  
Wind Speed 6 mph ()    
Max Wind Speed 14 mph    
Max Gust Speed 22 mph    
Visibility 5.0 miles    
Events Fog , Rain    
Averages and records for this station are not official NWS values.
T = Trace of Precipitation, MM = Missing Value Source: Averaged Metar Reports

Daily Weather History Graph

Daily Weather History Graph

Search for Another Location

Airport or City:

Astronomy

Oct. 22, 2019 Rise Set
Actual Time 7:13 AM EDT 6:04 PM EDT
Civil Twilight 6:45 AM EDT 6:32 PM EDT
Nautical Twilight 6:13 AM EDT 7:04 PM EDT
Astronomical Twilight 5:41 AM EDT 7:35 PM EDT
Moon 12:16 AM EDT (10/22) 3:15 PM EDT (10/22)
Length of Visible Light 11h 46m
Length of Day
10h 50m
Last Quarter, 37% of the Moon is Illuminated
Oct 22
Last Quarter
Oct 27
New
Nov 4
First Quarter
Nov 12
Full
Nov 19
Last Quarter

Hourly Weather History & Observations

Time (EDT) Temp. Dew Point Humidity Pressure Visibility Wind Dir Wind Speed Gust Speed Precip Events Conditions
12:56 AM 52.0 °F 44.1 °F 74% 30.13 in 10.0 mi ENE 4.6 mph - N/A   Clear
1:56 AM 51.1 °F 43.0 °F 74% 30.09 in 10.0 mi ENE 8.1 mph - N/A   Clear
2:56 AM 51.1 °F 39.0 °F 63% 30.10 in 10.0 mi ENE 4.6 mph - N/A   Partly Cloudy
3:56 AM 51.1 °F 37.9 °F 61% 30.07 in 10.0 mi ENE 5.8 mph - N/A   Partly Cloudy
4:56 AM 52.0 °F 37.9 °F 59% 30.09 in 10.0 mi ENE 3.5 mph - N/A   Scattered Clouds
5:56 AM 51.1 °F 39.0 °F 63% 30.07 in 10.0 mi East 8.1 mph - N/A   Mostly Cloudy
6:35 AM 51.1 °F 39.9 °F 66% 30.06 in 10.0 mi East 6.9 mph - N/A   Overcast
6:56 AM 51.1 °F 41.0 °F 68% 30.08 in 10.0 mi Variable 3.5 mph - N/A   Mostly Cloudy
7:56 AM 51.1 °F 42.1 °F 71% 30.08 in 10.0 mi East 5.8 mph - N/A   Overcast
8:56 AM 52.0 °F 45.0 °F 77% 30.08 in 10.0 mi ENE 8.1 mph - N/A   Mostly Cloudy
9:56 AM 53.1 °F 46.9 °F 80% 30.09 in 10.0 mi East 4.6 mph - N/A   Overcast
10:33 AM 53.1 °F 48.9 °F 86% 30.08 in 1.5 mi East 5.8 mph - 0.00 in   Light Drizzle
10:56 AM 53.1 °F 50.0 °F 89% 30.07 in 1.5 mi NE 6.9 mph - 0.00 in   Light Drizzle
11:56 AM 53.1 °F 52.0 °F 96% 30.06 in 1.0 mi East 6.9 mph - 0.02 in   Light Drizzle
12:56 PM 54.0 °F 53.1 °F 97% 30.03 in 1.0 mi Variable 5.8 mph 16.1 mph 0.01 in   Light Drizzle
1:56 PM 55.0 °F 54.0 °F 96% 29.99 in 0.2 mi East 8.1 mph - 0.00 in Fog Heavy Drizzle
2:56 PM 55.9 °F 55.0 °F 97% 29.94 in 0.5 mi ESE 11.5 mph 19.6 mph 0.01 in Fog Drizzle
3:56 PM 55.9 °F 55.9 °F 100% 29.92 in 0.5 mi East 12.7 mph 21.9 mph 0.00 in Fog Drizzle
4:56 PM 57.0 °F 55.9 °F 96% 29.91 in 0.5 mi East 9.2 mph - 0.01 in Fog Drizzle
5:56 PM 57.0 °F 55.9 °F 96% 29.91 in 1.5 mi East 10.4 mph 21.9 mph 0.01 in   Light Drizzle
6:56 PM 57.0 °F 55.9 °F 96% 29.90 in 1.5 mi ESE 10.4 mph 21.9 mph 0.00 in   Light Drizzle
7:56 PM 57.0 °F 55.9 °F 96% 29.91 in 1.5 mi ESE 9.2 mph - 0.02 in   Light Drizzle
8:56 PM 57.0 °F 55.9 °F 96% 29.86 in 2.0 mi ESE 13.8 mph 19.6 mph 0.12 in Rain Light Rain
9:56 PM 57.0 °F 57.0 °F 100% 29.85 in 2.0 mi East 11.5 mph - 0.04 in Rain Light Rain
10:56 PM 57.9 °F 57.0 °F 97% 29.83 in 3.0 mi ESE 10.4 mph - 0.08 in Rain Light Rain
11:56 PM 57.9 °F 57.9 °F 100% 29.79 in 1.5 mi ESE 10.4 mph - 0.09 in Rain Light Rain